[[{"header":{"parameterUnit":"m.s-1","parameterCategory":2,"la1":30.2991,"la2":30.254,"lo1":-89.0895,"lo2":-89.0444,"dy":0.0017,"dx":0.0017,"nx":28,"ny":28,"refTime":"2025-11-16T03:00:00:Z","depth":"0","parameterNumber":2,"parameterNumberName":"U-component_of_CURRENTS"},"data":[0,0,0,0,0,0,0,0,0,0,0,0,0,0,0,0,0,0,0,0,0,0,0,0,0,0,0,0,0,0,0,0,0,0,0,0,0,0,0,0,0,0,0,0,0,0,0,0,0,0,0,0,0,0,0,0,0,0,-0.2104,-0.2105,0,-0.2092,-0.2091,-0.2091,-0.2014,-0.2013,-0.2012,-0.2011,-0.1927,-0.1926,-0.1925,0,0,0,0,0,0,0,0,0,0,0,0,0,-0.2,-0.2002,-0.2104,-0.2105,-0.2106,-0.2092,-0.2091,-0.2091,-0.2014,-0.2013,-0.2011,-0.201,-0.1927,-0.1926,-0.1925,0,0,0,0,0,0,0,0,0,0,0,0,0,-0.2015,-0.2002,-0.2104,-0.2071,-0.2069,-0.2092,-0.2091,-0.209,-0.2015,-0.2013,-0.2011,-0.2009,-0.1928,-0.1926,-0.1925,-0.1949,0,0,-0.1919,-0.1919,0,0,0,0,0,0,0,0,-0.2014,-0.2018,-0.2076,-0.2074,-0.2071,-0.2059,-0.2024,-0.2042,-0.2015,-0.2027,-0.2011,-0.2009,-0.1971,-0.1966,-0.1957,-0.1945,-0.1942,-0.1919,-0.1918,-0.1917,-0.1917,0,0,0,0,0,0,0,-0.2013,-0.2018,-0.2092,-0.2077,-0.2074,-0.2037,-0.2036,-0.2027,-0.2002,-0.2026,-0.2022,-0.2034,-0.1968,-0.1959,-0.1955,-0.194,-0.1919,-0.1918,-0.1917,-0.1916,-0.1939,-0.1941,0,0,0,0,0,0,-0.2036,-0.2018,-0.2092,-0.2092,-0.2046,-0.2041,-0.204,-0.2059,-0.2003,-0.1996,-0.2035,-0.203,-0.1963,-0.1957,-0.1952,-0.1979,-0.1917,-0.1916,-0.1915,-0.1938,-0.194,-0.1941,0,0,0,0,0,0,-0.2034,-0.2043,-0.2093,-0.206,-0.2064,-0.2046,-0.2066,-0.206,-0.2055,-0.2013,-0.2002,-0.2039,-0.1961,-0.1954,-0.195,-0.1975,-0.1915,-0.1913,-0.1936,-0.1938,-0.194,-0.2033,0,0,0,0,0,0,-0.2031,-0.2042,-0.2057,-0.2062,-0.2067,-0.2122,-0.2069,-0.2061,-0.2069,-0.2062,-0.2013,-0.2003,-0.196,-0.1953,-0.1948,-0.1972,-0.1912,-0.1934,-0.1937,-0.194,-0.2028,-0.2039,-0.2048,0,0,0,0,0,-0.2027,-0.2069,-0.2058,-0.2067,-0.2091,-0.2125,-0.2124,-0.2098,-0.2071,-0.2083,-0.2045,-0.2004,-0.1969,-0.1953,-0.1947,-0.1971,-0.1932,-0.1936,-0.1939,-0.2024,-0.2037,-0.2047,0,0,0,0,0,0,-0.2032,-0.2066,-0.2054,-0.2102,-0.2117,-0.2115,-0.2133,-0.2114,-0.2094,-0.209,-0.2027,-0.2016,-0.2017,-0.1991,-0.1975,-0.1988,-0.1944,-0.1947,-0.201,-0.2022,-0.2032,-0.2065,-0.1911,0,0,0,0,0,-0.2043,-0.208,-0.21,-0.2138,-0.2154,-0.2143,-0.2152,-0.2144,-0.2135,-0.2124,-0.2089,-0.2056,-0.203,-0.2023,-0.1999,-0.2016,-0.2001,-0.2028,-0.2038,-0.2046,-0.2071,-0.2056,-0.2067,-0.1953,-0.1953,-0.1953,0,0,-0.2058,-0.208,-0.2101,-0.2141,-0.2149,-0.2197,-0.2143,-0.2181,-0.2208,-0.2121,-0.2139,-0.209,-0.2042,-0.2047,-0.2047,-0.2029,-0.2075,-0.2051,-0.2058,-0.2079,-0.2061,-0.2072,-0.2082,-0.1956,-0.1955,-0.1955,0,0,-0.2119,-0.2128,-0.2183,-0.2207,-0.2243,-0.2246,-0.2264,-0.2276,-0.2263,-0.2283,-0.2216,-0.2191,-0.2165,-0.2131,-0.2109,-0.2167,-0.2121,-0.2155,-0.2236,-0.2222,-0.2231,-0.2239,-0.2251,-0.2259,-0.2165,-0.2166,-0.2166,0,-0.2125,-0.2203,-0.2202,-0.2263,-0.2297,-0.2277,-0.2345,-0.2342,-0.2344,-0.234,-0.2306,-0.2255,-0.2209,-0.2204,-0.2215,-0.219,-0.218,-0.2192,-0.2235,-0.2242,-0.2249,-0.2258,-0.2266,-0.2171,-0.217,-0.2169,-0.2169,0,-0.2235,-0.229,-0.233,-0.2397,-0.243,-0.2489,-0.2501,-0.2511,-0.2491,-0.2477,-0.2465,-0.2399,-0.2363,-0.2343,-0.2295,-0.2316,-0.2295,-0.2242,-0.2205,-0.2266,-0.2272,-0.2279,-0.2178,-0.2176,-0.2174,-0.2173,0,0,-0.2246,-0.238,-0.239,-0.244,-0.2508,-0.2546,-0.2597,-0.2628,-0.2643,-0.2623,-0.2633,-0.2582,-0.2527,-0.2501,-0.243,-0.2422,-0.2452,-0.2362,-0.2359,-0.2376,-0.2444,-0.2343,-0.2339,-0.2398,-0.24,-0.2401,-0.2436,0,-0.232,-0.2474,-0.2511,-0.2628,-0.2706,-0.2704,-0.2742,-0.2761,-0.2751,-0.275,-0.2684,-0.2663,-0.2592,-0.2561,-0.2546,-0.2459,-0.2471,-0.2449,-0.2382,-0.2381,-0.2283,-0.2343,-0.2208,-0.2219,-0.2442,-0.2443,-0.2443,0,-0.2401,-0.2497,-0.2645,-0.2743,-0.277,-0.2818,-0.2866,-0.2897,-0.2887,-0.2871,-0.2848,-0.279,-0.2763,-0.2687,-0.2626,-0.2612,-0.2555,-0.25,-0.2499,-0.2379,-0.2291,-0.2191,-0.2221,-0.2175,-0.2453,-0.2452,-0.2451,0,-0.2421,-0.2571,-0.2693,-0.2735,-0.2847,-0.2874,-0.2907,-0.2926,-0.293,-0.2941,-0.293,-0.2905,-0.2857,-0.2803,-0.2684,-0.2659,-0.2617,-0.2559,-0.2434,-0.2427,-0.2287,-0.2265,-0.2263,-0.2551,-0.2551,-0.2551,-0.2551,0,-0.2482,-0.2562,-0.2704,-0.2769,-0.2848,-0.2911,-0.2955,-0.2975,-0.2989,-0.2986,-0.2977,-0.2949,-0.288,-0.2827,-0.2741,-0.2606,-0.2662,-0.2474,-0.243,-0.2317,-0.2297,-0.2227,-0.2245,-0.2552,-0.2552,-0.2551,-0.2551,0,-0.2472,-0.2581,-0.2702,-0.2837,-0.2862,-0.2908,-0.2957,-0.2974,-0.3003,-0.2998,-0.2999,-0.2983,-0.291,-0.2843,-0.2751,-0.265,-0.2493,-0.2496,-0.2382,-0.2323,-0.2131,-0.2159,-0.2158,-0.2097,-0.2372,-0.2369,-0.2367,0,-0.2479,-0.2561,-0.2723,-0.2746,-0.2794,-0.286,-0.288,-0.2955,-0.2969,-0.2988,-0.2972,-0.294,-0.2832,-0.2691,-0.2558,-0.2428,-0.2414,-0.2247,-0.2165,-0.2126,-0.2127,-0.2162,-0.2115,-0.2036,-0.2031,-0.2028,-0.2025,0,-0.2442,-0.2507,-0.2582,-0.2648,-0.2689,-0.273,-0.2774,-0.278,-0.2844,-0.2802,-0.2708,-0.2631,-0.2589,-0.2375,-0.2283,-0.2188,-0.2176,-0.2164,-0.2146,-0.1895,-0.1915,-0.183,-0.2041,-0.1992,-0.1995,-0.1998,-0.1999,-0.2001,-0.2328,-0.2362,-0.2419,-0.2451,-0.2496,-0.2456,-0.2369,-0.2392,-0.2292,-0.2105,-0.2333,-0.2095,-0.2216,-0.2021,-0.1951,-0.1811,-0.1912,-0.1721,-0.1774,-0.1827,-0.1719,-0.1873,-0.1747,-0.1749,-0.175,-0.1752,-0.1753,0,-0.2077,-0.2131,-0.2186,-0.2151,-0.2075,-0.2193,-0.2158,-0.1993,-0.1718,-0.1665,-0.151,-0.1534,-0.1463,-0.1555,-0.1533,-0.1438,-0.142,-0.1426,-0.1451,-0.1429,-0.1561,-0.149,-0.1275,-0.1275,-0.1275,-0.1275,-0.1275,-0.1275,-0.192,-0.1859,-0.1906,-0.1672,-0.1661,-0.1446,-0.1354,-0.1161,-0.1037,-0.0733,-0.0637,-0.0702,-0.1103,-0.1383,-0.1341,-0.127,-0.1258,-0.1227,-0.129,-0.138,-0.1412,-0.1442,-0.1378,-0.1142,-0.1142,-0.1071,-0.1071,-0.107]},{"header":{"parameterUnit":"m.s-1","parameterCategory":2,"la1":30.2991,"la2":30.254,"lo1":-89.0895,"lo2":-89.0444,"dy":0.0017,"dx":0.0017,"nx":28,"ny":28,"refTime":"2025-11-16T03:00:00:Z","depth":"0","parameterNumber":3,"parameterNumberName":"V-component_of_CURRENTS"},"data":[0,0,0,0,0,0,0,0,0,0,0,0,0,0,0,0,0,0,0,0,0,0,0,0,0,0,0,0,0,0,0,0,0,0,0,0,0,0,0,0,0,0,0,0,0,0,0,0,0,0,0,0,0,0,0,0,0,0,0.106,0.1061,0,0.1117,0.1117,0.1118,0.1148,0.1148,0.1149,0.1149,0.1206,0.1208,0.1209,0,0,0,0,0,0,0,0,0,0,0,0,0,0.1062,0.1061,0.106,0.1061,0.1062,0.1117,0.1117,0.1118,0.1148,0.1148,0.1149,0.1149,0.1206,0.1207,0.1209,0,0,0,0,0,0,0,0,0,0,0,0,0,0.1082,0.106,0.106,0.1085,0.1088,0.1117,0.1117,0.1118,0.1148,0.1148,0.1149,0.1149,0.1205,0.1207,0.1209,0.1213,0,0,0.1215,0.1216,0,0,0,0,0,0,0,0,0.108,0.1081,0.108,0.1083,0.1087,0.1128,0.1139,0.1151,0.1148,0.1123,0.1149,0.1149,0.1181,0.1185,0.1192,0.1215,0.1218,0.1215,0.1216,0.1217,0.1218,0,0,0,0,0,0,0,0.1079,0.1079,0.108,0.1081,0.1085,0.1123,0.1125,0.1142,0.1147,0.1125,0.1128,0.1138,0.1183,0.119,0.1193,0.1219,0.1215,0.1217,0.1218,0.1219,0.1275,0.1276,0,0,0,0,0,0,0.1071,0.1077,0.1078,0.1082,0.1087,0.1122,0.1125,0.1112,0.1147,0.1154,0.1138,0.1139,0.1186,0.1191,0.1196,0.1216,0.1217,0.1219,0.122,0.1275,0.1275,0.1276,0,0,0,0,0,0,0.1071,0.107,0.1076,0.1085,0.1088,0.1122,0.1108,0.1113,0.1119,0.1157,0.1163,0.1138,0.1187,0.1193,0.1212,0.1218,0.122,0.1222,0.1275,0.1275,0.1276,0.1247,0,0,0,0,0,0,0.107,0.1069,0.1052,0.1083,0.1088,0.1082,0.1108,0.1114,0.1126,0.1129,0.116,0.1165,0.1188,0.1209,0.1214,0.122,0.1223,0.1274,0.1275,0.1275,0.1248,0.1247,0.1246,0,0,0,0,0,0.1069,0.1035,0.105,0.1051,0.1064,0.1082,0.1087,0.1112,0.1126,0.112,0.115,0.1164,0.1217,0.1211,0.1216,0.1223,0.1274,0.1275,0.1275,0.1248,0.1247,0.1246,0,0,0,0,0,0,0.102,0.1037,0.1053,0.1024,0.1052,0.1088,0.1077,0.1107,0.1126,0.1124,0.1164,0.1172,0.1192,0.1211,0.1203,0.1243,0.125,0.1252,0.1227,0.1226,0.1225,0.1206,0.1225,0,0,0,0,0,0.1005,0.0983,0.102,0.0995,0.1002,0.1042,0.1051,0.1074,0.11,0.1108,0.114,0.1172,0.12,0.1214,0.1236,0.1254,0.1257,0.1265,0.1264,0.1263,0.1252,0.1265,0.1263,0.1278,0.1278,0.1278,0,0,0.0976,0.0985,0.0971,0.0985,0.1,0.1012,0.1046,0.1051,0.107,0.1111,0.1133,0.1164,0.1203,0.1226,0.1237,0.1242,0.126,0.1264,0.1263,0.1253,0.1265,0.1264,0.1262,0.1279,0.1279,0.1279,0,0,0.0914,0.0917,0.0884,0.0909,0.0937,0.0972,0.0974,0.1015,0.1037,0.1067,0.1106,0.1142,0.118,0.1218,0.124,0.1247,0.1252,0.1254,0.1237,0.1249,0.1247,0.1246,0.1241,0.1239,0.1257,0.1257,0.1257,0,0.0878,0.0846,0.0879,0.0873,0.0885,0.0953,0.0941,0.0982,0.1032,0.1046,0.1066,0.114,0.118,0.1217,0.1227,0.1245,0.1239,0.1237,0.1246,0.1245,0.1244,0.1239,0.1237,0.1256,0.1256,0.1256,0.1256,0,0.0804,0.0792,0.0774,0.0792,0.0818,0.0811,0.0884,0.0912,0.0955,0.1002,0.1043,0.1105,0.1145,0.1176,0.1207,0.1227,0.1219,0.1239,0.1244,0.124,0.1236,0.1235,0.1254,0.1254,0.1255,0.1255,0,0,0.0682,0.071,0.0703,0.0699,0.077,0.0773,0.0821,0.0867,0.0876,0.0956,0.0964,0.1057,0.1092,0.112,0.117,0.1199,0.1202,0.1212,0.1213,0.1196,0.1204,0.1213,0.1213,0.1214,0.1214,0.1213,0.12,0,0.0606,0.0556,0.0614,0.0594,0.0575,0.0673,0.0704,0.0769,0.0832,0.0864,0.0958,0.0985,0.1072,0.1078,0.1129,0.1179,0.1199,0.1203,0.1218,0.1218,0.1219,0.1213,0.122,0.121,0.1199,0.1199,0.1199,0,0.0505,0.0491,0.0438,0.0474,0.0474,0.0493,0.054,0.0582,0.0679,0.072,0.0797,0.0867,0.0946,0.1001,0.1102,0.1094,0.114,0.1186,0.1187,0.1202,0.1226,0.1215,0.1209,0.1316,0.1198,0.1198,0.1198,0,0.0361,0.0367,0.0311,0.0323,0.0382,0.0385,0.0428,0.0522,0.054,0.0624,0.0626,0.0754,0.0782,0.0886,0.1028,0.1043,0.1115,0.1148,0.1199,0.1199,0.1213,0.1215,0.1306,0.119,0.119,0.119,0.119,0,0.0239,0.0196,0.0234,0.0201,0.0153,0.0253,0.023,0.0294,0.0369,0.039,0.0528,0.0561,0.0749,0.084,0.0971,0.1088,0.1075,0.1185,0.1198,0.1204,0.1205,0.1307,0.1363,0.1189,0.1189,0.1189,0.1189,0,0.0081,0.0099,0.0042,0.0074,0.0076,0.0043,0.0097,0.0094,0.0177,0.0203,0.0219,0.0384,0.0524,0.0709,0.0872,0.0989,0.1181,0.115,0.1142,0.1155,0.1306,0.1359,0.1449,0.153,0.1192,0.1192,0.1192,0,-0.0008,-0.0062,-0.0079,-0.0111,-0.0102,-0.0121,-0.0126,-0.0028,0.0004,0.0117,0.0125,0.0252,0.0407,0.0644,0.0856,0.1059,0.1181,0.116,0.1208,0.1308,0.1377,0.1425,0.1492,0.121,0.121,0.121,0.1211,0,-0.0162,-0.0173,-0.0216,-0.0271,-0.0299,-0.0298,-0.0271,-0.0261,-0.0119,-0.0022,0.0158,0.0284,0.045,0.0708,0.0906,0.1038,0.1249,0.1169,0.1281,0.1402,0.1451,0.1537,0.1214,0.1213,0.1212,0.1212,0.1212,0.1212,-0.0267,-0.0328,-0.0362,-0.0405,-0.0432,-0.0378,-0.0317,-0.0211,-0.0062,0.0201,0.0254,0.0527,0.0638,0.0946,0.1068,0.1261,0.1277,0.1358,0.1411,0.1449,0.1544,0.1217,0.123,0.123,0.123,0.123,0.123,0,-0.0336,-0.0392,-0.0469,-0.0464,-0.0447,-0.0431,-0.0335,-0.0172,0.0115,0.0308,0.0592,0.088,0.1066,0.1168,0.1358,0.1507,0.1572,0.1586,0.1668,0.1725,0.1435,0.1455,0.1507,0.1507,0.1507,0.1507,0.1507,0.1507,-0.0372,-0.0455,-0.0477,-0.0437,-0.0408,-0.0277,-0.0165,0.0109,0.0313,0.0752,0.1005,0.1167,0.1248,0.1539,0.1739,0.1768,0.1938,0.1905,0.2013,0.1819,0.1803,0.1787,0.182,0.1949,0.195,0.2299,0.2302,0.2305]}],[{"header":{"parameterUnit":"m.s-1","parameterCategory":2,"la1":30.2991,"la2":30.254,"lo1":-89.0895,"lo2":-89.0444,"dy":0.0017,"dx":0.0017,"nx":28,"ny":28,"refTime":"2025-11-16T03:00:00:Z","depth":"2","parameterNumber":2,"parameterNumberName":"U-component_of_CURRENTS"},"data":[0,0,0,0,0,0,0,0,0,0,0,0,0,0,0,0,0,0,0,0,0,0,0,0,0,0,0,0,0,0,0,0,0,0,0,0,0,0,0,0,0,0,0,0,0,0,0,0,0,0,0,0,0,0,0,0,0,0,-0.2626,-0.2626,0,-0.2594,-0.2594,-0.2593,-0.259,-0.2591,-0.2591,-0.2592,-0.2508,-0.2506,-0.2503,0,0,0,0,0,0,0,0,0,0,0,0,0,-0.26,-0.2601,-0.2626,-0.2626,-0.2625,-0.2594,-0.2594,-0.2593,-0.259,-0.2591,-0.2591,-0.2592,-0.2509,-0.2506,-0.2503,0,0,0,0,0,0,0,0,0,0,0,0,0,-0.2592,-0.2601,-0.2626,-0.2622,-0.2621,-0.2595,-0.2594,-0.2593,-0.259,-0.2591,-0.2591,-0.2592,-0.251,-0.2506,-0.2502,-0.2462,0,0,-0.249,-0.2488,0,0,0,0,0,0,0,0,-0.2593,-0.2593,-0.2622,-0.2622,-0.2621,-0.2599,-0.2554,-0.2547,-0.259,-0.26,-0.2592,-0.2592,-0.2534,-0.2528,-0.2519,-0.2458,-0.2454,-0.2489,-0.2487,-0.2485,-0.2484,0,0,0,0,0,0,0,-0.2594,-0.2594,-0.2611,-0.2622,-0.2621,-0.2593,-0.2593,-0.2553,-0.256,-0.2599,-0.2599,-0.2598,-0.2534,-0.2523,-0.2516,-0.2453,-0.249,-0.2486,-0.2483,-0.2482,-0.2345,-0.2344,0,0,0,0,0,0,-0.2605,-0.2595,-0.2612,-0.2611,-0.2611,-0.2593,-0.2593,-0.2603,-0.2562,-0.2558,-0.2598,-0.2598,-0.2529,-0.2521,-0.2513,-0.2464,-0.2485,-0.2482,-0.2479,-0.2346,-0.2345,-0.2344,0,0,0,0,0,0,-0.2605,-0.2608,-0.2614,-0.2603,-0.2602,-0.2594,-0.2604,-0.2603,-0.2588,-0.2562,-0.2557,-0.2586,-0.2529,-0.2519,-0.2473,-0.2461,-0.248,-0.2476,-0.2348,-0.2346,-0.2344,-0.2365,0,0,0,0,0,0,-0.2605,-0.2608,-0.2609,-0.2604,-0.2603,-0.2595,-0.2604,-0.2601,-0.2588,-0.2588,-0.255,-0.2543,-0.2529,-0.2479,-0.2469,-0.2456,-0.2473,-0.2349,-0.2347,-0.2345,-0.2366,-0.2365,-0.2363,0,0,0,0,0,-0.2604,-0.2602,-0.261,-0.2611,-0.2609,-0.2595,-0.2591,-0.2585,-0.2587,-0.2576,-0.255,-0.2544,-0.2457,-0.2474,-0.2463,-0.2449,-0.235,-0.2348,-0.2345,-0.2367,-0.2365,-0.2363,0,0,0,0,0,0,-0.2602,-0.2602,-0.261,-0.2612,-0.2605,-0.2595,-0.2579,-0.2579,-0.255,-0.2547,-0.2525,-0.2516,-0.2471,-0.245,-0.2469,-0.2401,-0.2403,-0.2398,-0.2424,-0.2422,-0.242,-0.2439,-0.2469,0,0,0,0,0,-0.2601,-0.2589,-0.2597,-0.2594,-0.2591,-0.2584,-0.2574,-0.2574,-0.2554,-0.2542,-0.2517,-0.2484,-0.2449,-0.2429,-0.2394,-0.2352,-0.2357,-0.2334,-0.2333,-0.2332,-0.2337,-0.2324,-0.2323,-0.2335,-0.2335,-0.2335,0,0,-0.2595,-0.2596,-0.2588,-0.259,-0.2581,-0.2578,-0.2579,-0.2563,-0.2558,-0.2534,-0.2504,-0.2473,-0.2435,-0.2395,-0.2373,-0.2378,-0.2335,-0.2328,-0.2328,-0.2334,-0.2321,-0.232,-0.232,-0.2333,-0.2333,-0.2333,0,0,-0.2574,-0.2583,-0.2566,-0.2566,-0.2559,-0.2559,-0.2556,-0.2544,-0.2534,-0.2504,-0.2486,-0.2449,-0.2396,-0.2372,-0.2352,-0.2314,-0.2325,-0.23,-0.231,-0.2297,-0.2297,-0.2297,-0.2327,-0.233,-0.2303,-0.2303,-0.2303,0,-0.2568,-0.2563,-0.2557,-0.2553,-0.2554,-0.2553,-0.255,-0.2538,-0.2512,-0.2504,-0.2496,-0.2425,-0.2388,-0.2349,-0.2337,-0.2313,-0.2325,-0.2326,-0.2299,-0.2298,-0.2298,-0.2329,-0.2331,-0.2304,-0.2304,-0.2303,-0.2303,0,-0.254,-0.2544,-0.2533,-0.2533,-0.2532,-0.2524,-0.2527,-0.2516,-0.2507,-0.2501,-0.2459,-0.2411,-0.2378,-0.2352,-0.2333,-0.2304,-0.2323,-0.23,-0.2313,-0.2298,-0.2331,-0.2334,-0.2305,-0.2304,-0.2304,-0.2304,0,0,-0.2499,-0.2512,-0.2507,-0.2517,-0.2525,-0.2522,-0.2519,-0.2515,-0.2515,-0.2483,-0.2479,-0.2406,-0.2395,-0.237,-0.2337,-0.2317,-0.2323,-0.2311,-0.231,-0.2359,-0.2334,-0.2211,-0.2202,-0.2301,-0.2301,-0.23,-0.237,0,-0.2477,-0.2473,-0.2487,-0.2489,-0.2491,-0.251,-0.2511,-0.2511,-0.2504,-0.2499,-0.246,-0.2435,-0.2398,-0.2383,-0.2359,-0.233,-0.2325,-0.2309,-0.2325,-0.2326,-0.2231,-0.2197,-0.1994,-0.2025,-0.2372,-0.2372,-0.2372,0,-0.243,-0.2445,-0.2444,-0.2481,-0.2484,-0.2492,-0.2508,-0.251,-0.2513,-0.2511,-0.2495,-0.2474,-0.2447,-0.2412,-0.2381,-0.2378,-0.236,-0.2338,-0.234,-0.2216,-0.2203,-0.2087,-0.2016,-0.2376,-0.2376,-0.2375,-0.2375,0,-0.2378,-0.2408,-0.2409,-0.2419,-0.2461,-0.2471,-0.2495,-0.2507,-0.2512,-0.2524,-0.253,-0.2506,-0.2493,-0.2465,-0.2419,-0.241,-0.2394,-0.2377,-0.2258,-0.2253,-0.2075,-0.2052,-0.2354,-0.2354,-0.2354,-0.2354,-0.2353,0,-0.2332,-0.233,-0.2391,-0.239,-0.2416,-0.2452,-0.2469,-0.2492,-0.2518,-0.2514,-0.2532,-0.2502,-0.25,-0.2484,-0.2451,-0.2359,-0.2425,-0.2254,-0.2243,-0.2076,-0.2053,-0.2346,-0.2344,-0.2356,-0.2356,-0.2355,-0.2355,0,-0.2255,-0.2283,-0.2301,-0.2364,-0.2386,-0.2405,-0.2469,-0.2481,-0.2512,-0.2513,-0.2519,-0.2519,-0.2461,-0.2461,-0.242,-0.2377,-0.2318,-0.2273,-0.2097,-0.206,-0.2194,-0.2192,-0.2155,-0.2151,-0.2147,-0.2144,-0.2141,0,-0.2212,-0.2208,-0.2283,-0.2304,-0.2333,-0.2377,-0.2406,-0.2467,-0.2479,-0.2482,-0.2472,-0.2437,-0.2323,-0.2254,-0.2163,-0.2097,-0.2204,-0.1932,-0.1837,-0.217,-0.2165,-0.2169,-0.2172,-0.1646,-0.164,-0.1635,-0.1631,0,-0.2144,-0.2167,-0.2193,-0.2242,-0.2281,-0.2324,-0.2369,-0.2374,-0.2416,-0.2393,-0.231,-0.221,-0.2087,-0.1871,-0.1812,-0.1751,-0.1922,-0.1819,-0.2205,-0.1704,-0.1688,-0.1684,-0.1704,-0.1584,-0.1589,-0.1592,-0.1595,-0.1597,-0.2094,-0.2097,-0.2127,-0.2163,-0.2213,-0.2225,-0.2192,-0.2205,-0.2164,-0.2041,-0.2086,-0.1867,-0.1777,-0.1493,-0.1424,-0.1418,-0.153,-0.151,-0.1528,-0.1551,-0.1455,-0.143,-0.1264,-0.1267,-0.1269,-0.1271,-0.1273,0,-0.2012,-0.2011,-0.2045,-0.2062,-0.2059,-0.2122,-0.2122,-0.1994,-0.1847,-0.1791,-0.165,-0.1382,-0.119,-0.1155,-0.1024,-0.1002,-0.1012,-0.1007,-0.1023,-0.1066,-0.1106,-0.099,-0.0676,-0.0675,-0.0673,-0.0673,0,0,-0.1966,-0.1929,-0.1938,-0.1884,-0.1894,-0.1811,-0.1766,-0.1544,-0.1435,-0.121,-0.1111,-0.109,-0.1078,-0.0872,-0.0811,-0.0732,-0.0903,-0.0695,-0.1161,-0.122,-0.1258,-0.1366,-0.1231,0,0,0,0,0]},{"header":{"parameterUnit":"m.s-1","parameterCategory":2,"la1":30.2991,"la2":30.254,"lo1":-89.0895,"lo2":-89.0444,"dy":0.0017,"dx":0.0017,"nx":28,"ny":28,"refTime":"2025-11-16T03:00:00:Z","depth":"2","parameterNumber":3,"parameterNumberName":"V-component_of_CURRENTS"},"data":[0,0,0,0,0,0,0,0,0,0,0,0,0,0,0,0,0,0,0,0,0,0,0,0,0,0,0,0,0,0,0,0,0,0,0,0,0,0,0,0,0,0,0,0,0,0,0,0,0,0,0,0,0,0,0,0,0,0,-0.0203,-0.0202,0,-0.0112,-0.0111,-0.011,-0.0067,-0.0067,-0.0067,-0.0067,0.0064,0.0068,0.0071,0,0,0,0,0,0,0,0,0,0,0,0,0,-0.0367,-0.0364,-0.0203,-0.0202,-0.02,-0.0112,-0.0111,-0.011,-0.0067,-0.0067,-0.0067,-0.0067,0.0063,0.0067,0.0071,0,0,0,0,0,0,0,0,0,0,0,0,0,-0.0288,-0.0363,-0.0203,-0.0168,-0.0164,-0.0112,-0.0111,-0.0109,-0.0067,-0.0067,-0.0067,-0.0067,0.0062,0.0067,0.0072,0.0106,0,0,0.0088,0.009,0,0,0,0,0,0,0,0,-0.0292,-0.0282,-0.0175,-0.0171,-0.0166,-0.0101,-0.0121,-0.0035,-0.0067,-0.0104,-0.0067,-0.0067,0.0013,0.0022,0.0039,0.0112,0.0118,0.0089,0.0092,0.0094,0.0096,0,0,0,0,0,0,0,-0.0298,-0.0286,-0.0167,-0.0173,-0.0168,-0.0167,-0.0156,-0.0105,-0.0046,-0.0101,-0.0097,-0.0087,0.0015,0.0033,0.0042,0.012,0.0088,0.0093,0.0096,0.0098,0.0243,0.0244,0,0,0,0,0,0,-0.0307,-0.029,-0.017,-0.0164,-0.0231,-0.0164,-0.0151,-0.0122,-0.0047,-0.0036,-0.0087,-0.0086,0.0024,0.0036,0.0047,0.01,0.0094,0.0099,0.0102,0.0243,0.0243,0.0244,0,0,0,0,0,0,-0.031,-0.0296,-0.0173,-0.0227,-0.0211,-0.0161,-0.0128,-0.012,-0.0099,-0.0037,-0.0025,-0.0074,0.0025,0.004,0.0094,0.0105,0.0101,0.0106,0.0242,0.0243,0.0244,0.0201,0,0,0,0,0,0,-0.0315,-0.0297,-0.028,-0.0226,-0.0208,-0.0144,-0.0128,-0.0118,-0.0092,-0.0089,-0.0022,-0.001,0.0026,0.0086,0.0099,0.0112,0.011,0.0241,0.0242,0.0243,0.0202,0.0201,0.02,0,0,0,0,0,-0.0321,-0.0298,-0.0279,-0.0265,-0.0184,-0.0144,-0.0134,-0.01,-0.0092,-0.0082,-0.0037,-0.0012,0.0103,0.0091,0.0107,0.0121,0.024,0.0242,0.0243,0.0202,0.0201,0.02,0,0,0,0,0,0,-0.0348,-0.029,-0.0268,-0.0224,-0.0188,-0.0137,-0.0125,-0.0101,-0.0057,-0.0054,-0.0,0.0015,0.0062,0.0102,0.0086,0.0167,0.0175,0.018,0.0139,0.0138,0.0137,0.0137,0.0115,0,0,0,0,0,-0.0348,-0.0323,-0.0266,-0.0232,-0.0217,-0.0171,-0.0151,-0.0126,-0.0082,-0.0063,-0.0015,0.0037,0.0081,0.0116,0.0158,0.0211,0.0259,0.023,0.0229,0.0228,0.0239,0.0303,0.0308,0.0249,0.0249,0.0249,0,0,-0.035,-0.0315,-0.0298,-0.0238,-0.021,-0.019,-0.0159,-0.0129,-0.0105,-0.0054,-0.0008,0.0031,0.0091,0.014,0.0166,0.0177,0.0274,0.023,0.0228,0.0241,0.0305,0.031,0.0316,0.025,0.025,0.025,0,0,-0.0362,-0.031,-0.0306,-0.0278,-0.0236,-0.0202,-0.0195,-0.0141,-0.011,-0.006,-0.0025,0.0026,0.01,0.0146,0.0178,0.0203,0.0256,0.0213,0.0222,0.0282,0.0288,0.0293,0.0374,0.0387,0.0224,0.0223,0.0223,0,-0.037,-0.0344,-0.0299,-0.0292,-0.0267,-0.0212,-0.0201,-0.016,-0.0094,-0.0059,-0.0051,0.0063,0.0105,0.0177,0.018,0.0201,0.0249,0.0217,0.028,0.0286,0.0292,0.0374,0.0389,0.0222,0.0222,0.0222,0.0222,0,-0.0391,-0.0364,-0.0359,-0.0327,-0.0295,-0.0274,-0.0214,-0.0173,-0.0128,-0.0082,-0.0004,0.0059,0.0133,0.0148,0.0173,0.024,0.0265,0.0259,0.0279,0.0295,0.0381,0.0397,0.0219,0.022,0.022,0.0221,0,0,-0.0419,-0.0382,-0.0379,-0.0368,-0.0308,-0.0284,-0.0234,-0.0166,-0.0124,-0.0056,0.0009,0.0081,0.0123,0.0163,0.0206,0.0261,0.0341,0.0278,0.0282,0.0351,0.0496,0.0408,0.0418,0.034,0.0342,0.0344,0.0542,0,-0.0447,-0.0454,-0.041,-0.0393,-0.0388,-0.0308,-0.0263,-0.0192,-0.0119,-0.0042,0.0042,0.0108,0.0128,0.0165,0.0225,0.0307,0.038,0.029,0.0476,0.0483,0.0395,0.0431,0.0346,0.0504,0.0558,0.0561,0.0563,0,-0.0484,-0.0481,-0.0484,-0.0422,-0.0408,-0.0382,-0.0284,-0.0234,-0.0112,-0.0052,0.0039,0.0107,0.0213,0.0213,0.0389,0.0329,0.0415,0.0478,0.0487,0.0431,0.0423,0.0496,0.0532,0.059,0.0588,0.0586,0.0584,0,-0.0551,-0.0519,-0.0524,-0.0509,-0.0441,-0.0408,-0.0355,-0.0244,-0.0189,-0.0058,-0.0002,0.0133,0.0209,0.0325,0.046,0.0431,0.0651,0.0628,0.0645,0.0642,0.0619,0.0608,0.0759,0.0759,0.0759,0.0758,0.0757,0,-0.06,-0.0595,-0.0559,-0.0566,-0.0547,-0.0468,-0.0412,-0.0337,-0.0219,-0.0144,-0.002,0.0066,0.0235,0.0379,0.0488,0.062,0.0684,0.0662,0.0683,0.0601,0.0586,0.0693,0.0683,0.0765,0.0764,0.0762,0.0761,0,-0.0674,-0.065,-0.0657,-0.0607,-0.0588,-0.0577,-0.0473,-0.0423,-0.0306,-0.02,-0.016,0.0033,0.0204,0.038,0.0593,0.0646,0.0783,0.0819,0.0717,0.0718,0.0735,0.0721,0.0855,0.0854,0.0852,0.0851,0.085,0,-0.0711,-0.0734,-0.0718,-0.0726,-0.0705,-0.0665,-0.0625,-0.0495,-0.0425,-0.022,-0.017,0.0021,0.011,0.0385,0.0538,0.0717,0.0792,0.0766,0.0666,0.0737,0.0745,0.0732,0.0719,0.0656,0.0653,0.0651,0.065,0,-0.0791,-0.0791,-0.0799,-0.0828,-0.0809,-0.0768,-0.0692,-0.0654,-0.0472,-0.0393,-0.0241,-0.0172,0.0075,0.0214,0.0433,0.0534,0.0713,0.0723,0.0871,0.0599,0.0551,0.0557,0.0552,0.0632,0.0634,0.0635,0.0636,0.0637,-0.0848,-0.0879,-0.0899,-0.0918,-0.0894,-0.0853,-0.0818,-0.0745,-0.0668,-0.052,-0.0375,-0.0256,-0.0062,0.0155,0.0342,0.0549,0.0541,0.0608,0.0615,0.0623,0.0518,0.0465,0.0515,0.0516,0.0517,0.0518,0.0519,0,-0.093,-0.0949,-0.0979,-0.098,-0.0962,-0.0921,-0.0839,-0.0796,-0.0746,-0.0614,-0.0517,-0.0314,-0.0195,0.0071,0.0306,0.0416,0.0436,0.0496,0.0507,0.052,0.0532,0.0425,0.0397,0.0398,0.0399,0.04,0,0,-0.0975,-0.1029,-0.1039,-0.1037,-0.1014,-0.096,-0.0914,-0.088,-0.078,-0.0691,-0.0575,-0.0471,-0.02,-0.0027,0.0143,0.0292,0.0384,0.0307,0.0375,0.0375,0.0388,0.0549,0.0389,0,0,0,0,0]}],[{"header":{"parameterUnit":"m.s-1","parameterCategory":2,"la1":30.2991,"la2":30.254,"lo1":-89.0895,"lo2":-89.0444,"dy":0.0017,"dx":0.0017,"nx":28,"ny":28,"refTime":"2025-11-16T03:00:00:Z","depth":"4","parameterNumber":2,"parameterNumberName":"U-component_of_CURRENTS"},"data":[0,0,0,0,0,0,0,0,0,0,0,0,0,0,0,0,0,0,0,0,0,0,0,0,0,0,0,0,0,0,0,0,0,0,0,0,0,0,0,0,0,0,0,0,0,0,0,0,0,0,0,0,0,0,0,0,0,0,-0.0919,-0.0919,0,-0.0974,-0.0974,-0.0975,-0.1028,-0.1029,-0.1029,-0.103,-0.1053,-0.1053,-0.1053,0,0,0,0,0,0,0,0,0,0,0,0,0,-0.0904,-0.0904,-0.0919,-0.092,-0.092,-0.0973,-0.0974,-0.0975,-0.1028,-0.1029,-0.1029,-0.103,-0.1053,-0.1053,-0.1053,0,0,0,0,0,0,0,0,0,0,0,0,0,-0.0931,-0.0904,-0.0919,-0.0951,-0.0955,-0.0973,-0.0974,-0.0976,-0.1028,-0.1029,-0.103,-0.103,-0.1052,-0.1053,-0.1053,-0.1039,0,0,-0.1053,-0.1054,0,0,0,0,0,0,0,0,-0.093,-0.0932,-0.0946,-0.0949,-0.0953,-0.0993,-0.0977,-0.0994,-0.1028,-0.1002,-0.103,-0.1031,-0.1028,-0.103,-0.1042,-0.104,-0.1041,-0.1053,-0.1054,-0.1054,-0.1054,0,0,0,0,0,0,0,-0.0928,-0.093,-0.0943,-0.0947,-0.0951,-0.0978,-0.0982,-0.0981,-0.1011,-0.1005,-0.1008,-0.1011,-0.103,-0.1042,-0.1043,-0.1041,-0.1053,-0.1054,-0.1054,-0.1054,-0.1161,-0.1164,0,0,0,0,0,0,-0.0914,-0.0928,-0.0941,-0.0944,-0.0941,-0.0977,-0.0982,-0.0981,-0.1012,-0.1017,-0.101,-0.1013,-0.1041,-0.1042,-0.1044,-0.1096,-0.1054,-0.1054,-0.1054,-0.1159,-0.1162,-0.1165,0,0,0,0,0,0,-0.0913,-0.0914,-0.0939,-0.0936,-0.0941,-0.0976,-0.0975,-0.0982,-0.1023,-0.1016,-0.1021,-0.1047,-0.1042,-0.1043,-0.1085,-0.1094,-0.1054,-0.1054,-0.1156,-0.116,-0.1164,-0.1156,0,0,0,0,0,0,-0.0912,-0.0913,-0.0924,-0.0935,-0.094,-0.0963,-0.0974,-0.0982,-0.1021,-0.1026,-0.1049,-0.105,-0.1042,-0.1085,-0.1085,-0.1094,-0.1054,-0.1152,-0.1157,-0.1162,-0.1153,-0.1159,-0.1165,0,0,0,0,0,-0.0911,-0.0919,-0.0924,-0.0926,-0.0948,-0.0963,-0.0969,-0.0998,-0.1022,-0.104,-0.1074,-0.1051,-0.1118,-0.1087,-0.1087,-0.1095,-0.115,-0.1156,-0.1162,-0.115,-0.1158,-0.1165,0,0,0,0,0,0,-0.0907,-0.0925,-0.0931,-0.094,-0.0955,-0.0972,-0.0987,-0.1015,-0.1057,-0.1068,-0.1076,-0.108,-0.1137,-0.1125,-0.1091,-0.1152,-0.1134,-0.114,-0.1126,-0.1133,-0.1139,-0.1149,-0.1054,0,0,0,0,0,-0.0909,-0.0929,-0.0938,-0.0947,-0.095,-0.0976,-0.0993,-0.1013,-0.1042,-0.1063,-0.1085,-0.1116,-0.1157,-0.1152,-0.1192,-0.1195,-0.1206,-0.1211,-0.1217,-0.1221,-0.1236,-0.1338,-0.1354,-0.1185,-0.1185,-0.1185,0,0,-0.0905,-0.0922,-0.0929,-0.095,-0.0959,-0.0968,-0.0989,-0.1014,-0.1043,-0.1055,-0.111,-0.1152,-0.1178,-0.1211,-0.123,-0.1193,-0.1255,-0.1229,-0.1232,-0.1245,-0.1346,-0.1362,-0.1376,-0.1189,-0.1189,-0.1188,0,0,-0.0904,-0.092,-0.0933,-0.0938,-0.096,-0.0981,-0.0995,-0.1027,-0.1064,-0.1114,-0.1153,-0.1207,-0.1239,-0.1262,-0.1276,-0.134,-0.1315,-0.1349,-0.1341,-0.1439,-0.1453,-0.1466,-0.1399,-0.1407,-0.1313,-0.1313,-0.1314,0,-0.091,-0.0916,-0.0938,-0.0939,-0.0947,-0.0989,-0.0995,-0.1033,-0.1087,-0.1122,-0.1136,-0.1257,-0.1269,-0.1322,-0.1343,-0.1349,-0.1357,-0.1296,-0.1444,-0.1458,-0.1471,-0.1401,-0.1409,-0.1314,-0.1314,-0.1314,-0.1314,0,-0.0896,-0.0909,-0.0911,-0.0934,-0.0949,-0.0961,-0.0997,-0.1042,-0.11,-0.1143,-0.1244,-0.1289,-0.1355,-0.1364,-0.1362,-0.1454,-0.1407,-0.1465,-0.1413,-0.1487,-0.1408,-0.1416,-0.1314,-0.1314,-0.1314,-0.1314,0,0,-0.0892,-0.0909,-0.091,-0.0913,-0.0948,-0.0954,-0.1006,-0.1067,-0.1112,-0.1191,-0.126,-0.1343,-0.139,-0.1415,-0.1434,-0.1487,-0.1541,-0.1501,-0.1506,-0.1409,-0.165,-0.1493,-0.1486,-0.164,-0.1644,-0.1648,-0.1517,0,-0.0885,-0.0884,-0.0908,-0.0917,-0.091,-0.0958,-0.1006,-0.1064,-0.1133,-0.1208,-0.1292,-0.1389,-0.1402,-0.1447,-0.1507,-0.1559,-0.1583,-0.1564,-0.1616,-0.1615,-0.1451,-0.1501,-0.1661,-0.1523,-0.1525,-0.1527,-0.1528,0,-0.0854,-0.0863,-0.0865,-0.0904,-0.091,-0.0935,-0.1006,-0.1062,-0.1169,-0.1221,-0.1319,-0.1412,-0.1491,-0.1534,-0.1622,-0.1612,-0.164,-0.1664,-0.1662,-0.1539,-0.148,-0.1466,-0.1543,-0.1542,-0.1541,-0.154,-0.1539,0,-0.081,-0.0834,-0.0844,-0.0843,-0.0893,-0.0925,-0.0982,-0.1069,-0.1124,-0.1257,-0.128,-0.1432,-0.1471,-0.16,-0.1619,-0.1661,-0.1685,-0.1751,-0.1615,-0.1596,-0.1773,-0.1762,-0.1863,-0.1863,-0.1863,-0.1864,-0.1864,0,-0.0779,-0.0784,-0.0822,-0.0817,-0.0848,-0.0897,-0.0963,-0.1026,-0.1127,-0.1169,-0.1295,-0.1323,-0.1514,-0.1543,-0.1614,-0.1572,-0.168,-0.1611,-0.1591,-0.1756,-0.1746,-0.177,-0.1762,-0.1859,-0.186,-0.1861,-0.1862,0,-0.0718,-0.0747,-0.0755,-0.0807,-0.0822,-0.0848,-0.0944,-0.0988,-0.1062,-0.1109,-0.1165,-0.1249,-0.1283,-0.1368,-0.1501,-0.1492,-0.1538,-0.1506,-0.1536,-0.1519,-0.1371,-0.1363,-0.1366,-0.1361,-0.1356,-0.1352,-0.1348,0,-0.069,-0.0681,-0.0726,-0.0734,-0.0762,-0.081,-0.0846,-0.0956,-0.0989,-0.104,-0.104,-0.1095,-0.1144,-0.1114,-0.1255,-0.1317,-0.1355,-0.1318,-0.1495,-0.1358,-0.1339,-0.1339,-0.1338,-0.1341,-0.1339,-0.1338,-0.1337,0,-0.0634,-0.0658,-0.0668,-0.0671,-0.0699,-0.0731,-0.0784,-0.0799,-0.0899,-0.0947,-0.0935,-0.0986,-0.095,-0.105,-0.1051,-0.1135,-0.1334,-0.1269,-0.1283,-0.145,-0.1327,-0.1312,-0.1317,-0.132,-0.1322,-0.1324,-0.1325,0,-0.0606,-0.0597,-0.0608,-0.0607,-0.0632,-0.0637,-0.0686,-0.0712,-0.0764,-0.0831,-0.0819,-0.0851,-0.0922,-0.0945,-0.0974,-0.1003,-0.107,-0.1109,-0.1134,-0.1153,-0.116,-0.0977,-0.0844,0,0,0,0,0,-0.0577,-0.0552,-0.0541,-0.0539,-0.0553,-0.0565,-0.0627,-0.0679,-0.075,-0.0725,-0.0787,-0.0784,-0.0817,-0.0847,-0.0854,-0.0907,-0.1071,-0.0912,-0.1128,-0.1226,-0.1246,-0.1282,0,0,0,0,0,0,-0.0557,-0.0544,-0.0519,-0.0468,-0.0448,-0.046,-0.0502,-0.0552,-0.0561,-0.0637,-0.0666,-0.073,-0.0782,-0.0793,-0.0827,-0.0841,-0.0968,-0.0959,-0.0957,-0.1215,-0.1233,-0.1249,-0.1293,0,0,0,0,0]},{"header":{"parameterUnit":"m.s-1","parameterCategory":2,"la1":30.2991,"la2":30.254,"lo1":-89.0895,"lo2":-89.0444,"dy":0.0017,"dx":0.0017,"nx":28,"ny":28,"refTime":"2025-11-16T03:00:00:Z","depth":"4","parameterNumber":3,"parameterNumberName":"V-component_of_CURRENTS"},"data":[0,0,0,0,0,0,0,0,0,0,0,0,0,0,0,0,0,0,0,0,0,0,0,0,0,0,0,0,0,0,0,0,0,0,0,0,0,0,0,0,0,0,0,0,0,0,0,0,0,0,0,0,0,0,0,0,0,0,-0.0473,-0.0473,0,-0.0484,-0.0485,-0.0485,-0.0479,-0.0478,-0.0478,-0.0477,-0.0463,-0.0464,-0.0464,0,0,0,0,0,0,0,0,0,0,0,0,0,-0.0427,-0.0428,-0.0473,-0.0473,-0.0472,-0.0484,-0.0485,-0.0485,-0.0479,-0.0478,-0.0478,-0.0477,-0.0463,-0.0464,-0.0464,0,0,0,0,0,0,0,0,0,0,0,0,0,-0.0446,-0.0429,-0.0473,-0.0469,-0.0468,-0.0484,-0.0485,-0.0485,-0.0479,-0.0478,-0.0477,-0.0477,-0.0463,-0.0464,-0.0464,-0.0482,0,0,-0.0465,-0.0465,0,0,0,0,0,0,0,0,-0.0445,-0.0448,-0.047,-0.0469,-0.0469,-0.0477,-0.0463,-0.0482,-0.0479,-0.0478,-0.0477,-0.0476,-0.0464,-0.0465,-0.0473,-0.0481,-0.0481,-0.0465,-0.0465,-0.0465,-0.0465,0,0,0,0,0,0,0,-0.0444,-0.0448,-0.048,-0.0469,-0.0469,-0.046,-0.0463,-0.0467,-0.0477,-0.0478,-0.0477,-0.0474,-0.0464,-0.0473,-0.0472,-0.048,-0.0465,-0.0465,-0.0465,-0.0465,-0.0495,-0.0496,0,0,0,0,0,0,-0.0439,-0.0447,-0.048,-0.048,-0.0452,-0.0462,-0.0464,-0.0477,-0.0478,-0.0477,-0.0475,-0.0474,-0.0473,-0.0472,-0.0472,-0.0506,-0.0465,-0.0465,-0.0465,-0.0495,-0.0495,-0.0496,0,0,0,0,0,0,-0.0439,-0.0443,-0.0479,-0.046,-0.0464,-0.0463,-0.0478,-0.0478,-0.0492,-0.0475,-0.0474,-0.0489,-0.0472,-0.0471,-0.0483,-0.0504,-0.0465,-0.0465,-0.0494,-0.0495,-0.0496,-0.0565,0,0,0,0,0,0,-0.0438,-0.0443,-0.0458,-0.0461,-0.0465,-0.0496,-0.0478,-0.0479,-0.049,-0.0489,-0.0487,-0.0485,-0.0471,-0.0482,-0.0483,-0.0504,-0.0465,-0.0493,-0.0494,-0.0495,-0.0562,-0.0568,-0.0574,0,0,0,0,0,-0.0436,-0.0458,-0.046,-0.0463,-0.0484,-0.0497,-0.0499,-0.0496,-0.0492,-0.0506,-0.0501,-0.0485,-0.049,-0.0484,-0.0484,-0.0505,-0.0492,-0.0494,-0.0495,-0.0559,-0.0567,-0.0574,0,0,0,0,0,0,-0.0451,-0.046,-0.0461,-0.0486,-0.0494,-0.0495,-0.0507,-0.0506,-0.0516,-0.0518,-0.05,-0.0498,-0.0517,-0.05,-0.0493,-0.0515,-0.0486,-0.0488,-0.0535,-0.0542,-0.0548,-0.0555,-0.0466,0,0,0,0,0,-0.0461,-0.0478,-0.0483,-0.0505,-0.051,-0.0512,-0.0519,-0.0522,-0.0525,-0.053,-0.0523,-0.0518,-0.0524,-0.0523,-0.0524,-0.054,-0.0516,-0.0551,-0.0557,-0.0562,-0.0567,-0.0555,-0.056,-0.0501,-0.0501,-0.0501,0,0,-0.0471,-0.0479,-0.0489,-0.0509,-0.0515,-0.0533,-0.0516,-0.0535,-0.0553,-0.0527,-0.0548,-0.0544,-0.0534,-0.0552,-0.0558,-0.054,-0.0564,-0.0564,-0.0568,-0.057,-0.0557,-0.0563,-0.0568,-0.0502,-0.0502,-0.0502,0,0,-0.0496,-0.0511,-0.053,-0.0542,-0.0555,-0.0558,-0.0566,-0.0574,-0.0582,-0.0605,-0.0589,-0.06,-0.0602,-0.0601,-0.0601,-0.064,-0.0601,-0.0633,-0.0667,-0.0656,-0.0661,-0.0665,-0.0636,-0.0637,-0.0631,-0.0631,-0.0631,0,-0.0508,-0.0537,-0.0538,-0.056,-0.0574,-0.0571,-0.0597,-0.0608,-0.0619,-0.0629,-0.062,-0.064,-0.063,-0.0656,-0.0664,-0.0656,-0.063,-0.0644,-0.0665,-0.0668,-0.0671,-0.0641,-0.0641,-0.0635,-0.0634,-0.0634,-0.0634,0,-0.054,-0.057,-0.0583,-0.061,-0.0626,-0.0651,-0.0661,-0.0676,-0.0683,-0.0691,-0.0722,-0.0717,-0.0725,-0.0725,-0.0706,-0.0725,-0.0693,-0.0679,-0.0649,-0.0682,-0.0647,-0.0646,-0.064,-0.0638,-0.0637,-0.0637,0,0,-0.0553,-0.0597,-0.0604,-0.0627,-0.0658,-0.0673,-0.0706,-0.0732,-0.0754,-0.077,-0.0799,-0.0814,-0.0808,-0.0807,-0.079,-0.0778,-0.0774,-0.0734,-0.0732,-0.071,-0.0731,-0.0641,-0.063,-0.0758,-0.0759,-0.0759,-0.0696,0,-0.0579,-0.0626,-0.0645,-0.0695,-0.072,-0.0736,-0.0767,-0.0792,-0.0807,-0.0831,-0.084,-0.0868,-0.0841,-0.0853,-0.0837,-0.0795,-0.0774,-0.0791,-0.0699,-0.0696,-0.0616,-0.0628,-0.076,-0.0695,-0.0694,-0.0694,-0.0694,0,-0.0603,-0.0632,-0.0686,-0.074,-0.0753,-0.0785,-0.0829,-0.0859,-0.0889,-0.0904,-0.0929,-0.0932,-0.0939,-0.0907,-0.0855,-0.0863,-0.0801,-0.0761,-0.0757,-0.0649,-0.0604,-0.0656,-0.0691,-0.0692,-0.0692,-0.0692,-0.0692,0,-0.0601,-0.0662,-0.0706,-0.0726,-0.0783,-0.0814,-0.0845,-0.0883,-0.0906,-0.0956,-0.0964,-0.0987,-0.0979,-0.0939,-0.0851,-0.0856,-0.0767,-0.0767,-0.0629,-0.0621,-0.0691,-0.0688,-0.0722,-0.0722,-0.0722,-0.0723,-0.0723,0,-0.0618,-0.0656,-0.0711,-0.0737,-0.0791,-0.083,-0.0888,-0.0916,-0.0955,-0.0967,-0.1001,-0.0991,-0.0981,-0.0926,-0.0863,-0.0729,-0.0776,-0.0633,-0.0601,-0.072,-0.0721,-0.069,-0.0687,-0.072,-0.0721,-0.0721,-0.0722,0,-0.0615,-0.0652,-0.0708,-0.0774,-0.0795,-0.0837,-0.0904,-0.0936,-0.0968,-0.098,-0.0998,-0.0988,-0.0914,-0.0873,-0.0788,-0.0717,-0.0628,-0.0562,-0.0679,-0.0655,-0.0489,-0.0491,-0.0428,-0.0424,-0.0421,-0.0418,-0.0416,0,-0.0616,-0.0645,-0.0726,-0.0757,-0.0793,-0.0854,-0.0893,-0.0944,-0.0955,-0.0951,-0.0935,-0.0892,-0.0866,-0.0689,-0.0647,-0.0537,-0.0505,-0.0468,-0.0499,-0.0485,-0.0461,-0.0467,-0.0472,-0.0411,-0.041,-0.041,-0.0409,0,-0.0618,-0.0655,-0.0694,-0.0754,-0.0804,-0.0858,-0.0898,-0.09,-0.0928,-0.0947,-0.0866,-0.0807,-0.0699,-0.0627,-0.0533,-0.0453,-0.0515,-0.0436,-0.0442,-0.0471,-0.0464,-0.0444,-0.0454,-0.0398,-0.04,-0.0401,-0.0401,0,-0.0614,-0.064,-0.0691,-0.0741,-0.08,-0.0837,-0.0871,-0.0861,-0.0872,-0.0847,-0.0805,-0.0734,-0.0707,-0.0574,-0.0486,-0.0408,-0.039,-0.0377,-0.0387,-0.0398,-0.0407,-0.0395,-0.0278,0,0,0,0,0,-0.0607,-0.0628,-0.0672,-0.0726,-0.0783,-0.0819,-0.0856,-0.0878,-0.0878,-0.0809,-0.0808,-0.0708,-0.0571,-0.0524,-0.0426,-0.0432,-0.0386,-0.0312,-0.0379,-0.0339,-0.0351,-0.0358,0,0,0,0,0,0,-0.0601,-0.0637,-0.0659,-0.07,-0.0733,-0.0792,-0.0821,-0.0828,-0.0782,-0.077,-0.0702,-0.0665,-0.0544,-0.0624,-0.0418,-0.0395,-0.0418,-0.0258,-0.0255,-0.0332,-0.0343,-0.0353,-0.0365,0,0,0,0,0]}]]